Flag for Austria Weather for the Past 2 Weeks in Tulln an der Donau, Lower Austria, Austria

Now
52 °F

Sprinkles. Broken clouds.


Feels Like: 49 °F
Forecast: 48 / 51 °F
Wind: 9 mph from West

Location: Tulln Airport

Current Time: May 3, 2016 at 10:52:56 AM

Latest Report: May 3, 2016 at 9:50 AM


Visibility: 4 mi

Pressure: 30.01 "Hg

Humidity: 94%

Dew Point: 50 °F

Location of Tulln an der DonauLocation

Historic Weather in Tulln an der Donau — Graph

°F

Tulln an der Donau Temperature Yesterday

Maximum temperature yesterday: 64 °F (at 3:50 PM)
Minimum temperature yesterday: 50 °F (at 5:50 AM)
Average temperature yesterday: 58 °F

High & Low Weather Summary for the Past Weeks

 TemperatureHumidityPressure
High72 °F (Apr 22, 2:50 PM)100% (Apr 27, 7:50 AM)30.36 "Hg (Apr 27, 7:50 AM)
Low30 °F (Apr 28, 5:50 AM)27% (Apr 20, 3:50 PM)29.56 "Hg (Apr 26, 6:50 PM)
Average52 °F60%29.99 "Hg
* Reported Apr 18 8:50 AM — May 3 8:50 AM, Tulln an der Donau, Weather by CustomWeather, © 2016

Note: Actual official high and low records may vary slightly from our data, if they occured in-between our weather recording intervals... More about our weather records

Advertising

Tulln an der Donau Weather History for the Previous 24 Hours

Scroll right to see more
 ConditionsComfort  
Time TempWeatherWind HumidityBarometerVisibility
8:50 AM
Tue, May 3
52 °FBroken clouds.9 mph94%30.01 "Hg4 mi
7:50 AM52 °FSprinkles. Fog.3 mph94%30.01 "Hg2 mi
6:50 AM52 °FBroken clouds.9 mph94%30.01 "Hg6 mi
5:50 AM52 °FFog.8 mph94%30.01 "Hg7 mi
10:50 PM
Mon, May 2
54 °FPassing clouds.6 mph94%30.04 "Hg9 mi
9:50 PM54 °FPassing clouds.6 mph94%30.04 "Hg7 mi
8:50 PM55 °FBroken clouds.6 mph94%30.04 "Hg7 mi
7:50 PM57 °FSprinkles. Broken clouds.7 mph82%30.04 "Hg7 mi
6:50 PM57 °FLight rain. Broken clouds.2 mph82%30.04 "Hg12 mi
5:50 PM59 °FBroken clouds.3 mph77%30.04 "Hg9 mi
4:50 PM57 °FSprinkles. Broken clouds.5 mph82%30.04 "Hg7 mi
3:50 PM64 °FSprinkles. Broken clouds.12 mph60%30.04 "Hg11 mi
3:20 PM63 °FBroken clouds.9 mph64%30.04 "Hg11 mi
2:50 PM61 °FBroken clouds.15 mph63%30.04 "Hg11 mi
1:50 PM59 °FPartly sunny.13 mph68%30.07 "Hg11 mi
1:20 PM59 °FPartly sunny.12 mph68%30.07 "Hg11 mi
12:50 PM63 °FPartly sunny.8 mph59%30.07 "Hg11 mi
11:50 AM63 °FPartly sunny.7 mph59%30.09 "Hg11 mi
11:20 AM61 °FPartly sunny.6 mph63%30.09 "Hg11 mi
10:50 AM59 °FPartly sunny.8 mph63%30.09 "Hg11 mi
Weather by CustomWeather, © 2016

See weather overviewHow to use our weather pages